Flag for Canada Weather past 2 weeks in Norfolk, Ontario, Canada

Now
50 °F

Cool.


Feels Like: 50 °F
Forecast: 33 / 64 °F
Wind: 2 mph from East

Location: Delhi CS


UV Index: 5 (Moderate)

Visibility: N/A


Pressure: 30.34 "Hg

Humidity: 44%

Dew point: 29 °F

Location of NorfolkLocation

Historic Weather in Norfolk

°F

Norfolk temperature yesterday

Maximum temperature yesterday: 55 °F (at 5:00 PM)
Minimum temperature yesterday: 30 °F (at 4:00 AM)
Average temperature yesterday: 42 °F

Past Weeks' High & Low Weather Summary

 TemperatureHumidityPressure
High71 °F (Apr 13, 5:00 PM)100% (Apr 7, 11:00 PM)30.51 "Hg (Apr 7, 11:00 PM)
Low17 °F (Apr 16, 4:00 AM)29% (Apr 10, 3:00 PM)29.30 "Hg (Apr 8, 4:00 AM)
Average43 °F69%30.03 "Hg
* Reported Apr 5 10:00 AM — Apr 20 10:00 AM, Norfolk, Weather by CustomWeather, © 2014

Note: Actual official high and low records may vary slightly from our data, if they occured in-between our weather recording intervals... More about our weather records

Advertising

Historic Weather Conditions — Data for Previous 24 hours

 ConditionsComfort  
Time TempWeatherWind HumidityBarometerVisibility
10:00 AM
Apr 20
50 °FCool.2 mph44%30.34 "HgN/A
9:00 AM45 °FCool.2 mph51%30.36 "HgN/A
8:00 AM39 °FChilly.1 mph64%30.36 "HgN/A
7:00 AM32 °FChilly.No wind83%30.36 "HgN/A
6:00 AM31 °FChilly.No wind92%30.36 "HgN/A
5:00 AM35 °FChilly.No wind76%30.36 "HgN/A
4:00 AM34 °FChilly.No wind82%30.37 "HgN/A
3:00 AM35 °FChilly.No wind80%30.36 "HgN/A
2:00 AM37 °FChilly.No wind68%30.37 "HgN/A
1:00 AM38 °FChilly.1 mph67%30.38 "HgN/A
12:00 AM37 °FChilly.No wind71%30.37 "HgN/A
11:00 PM
Apr 19
39 °FChilly.No wind64%30.38 "HgN/A
10:00 PM40 °FQuite cool.1 mph59%30.38 "HgN/A
9:00 PM45 °FCool.5 mph47%30.37 "HgN/A
8:00 PM48 °FCool.2 mph47%30.37 "HgN/A
7:00 PM51 °FCool.5 mph42%30.38 "HgN/A
6:00 PM54 °FCool.3 mph36%30.38 "HgN/A
5:00 PM55 °FCool.3 mph37%30.38 "HgN/A
4:00 PM54 °FCool.3 mph38%30.39 "HgN/A
3:00 PM53 °FCool.5 mph34%30.40 "HgN/A
2:00 PM52 °FCool.5 mph39%30.42 "HgN/A
1:00 PM50 °FCool.5 mph41%30.43 "HgN/A
12:00 PM49 °FCool.5 mph48%30.43 "HgN/A
11:00 AM47 °FCool.6 mph55%30.45 "HgN/A
Weather by CustomWeather, © 2014

See weather overview